Regional Weather Roundup
Issued by NWS

Home | Current Version | Previous Version | Graphics & Text | Print | Product List | Glossary Off
Versions: 1 2 3 4 5 6 7 8 9 10 11 12 13 14 15 16 17 18 19 20 21 22 23 24 25 26 27 28 29 30 31 32 33 34 35 36 37 38 39 40 41 42 43 44 45 46 47 48 49 50

000
ASUS43 KTOP 232008
RWRKS

WEATHER ROUNDUP FOR KANSAS
NATIONAL WEATHER SERVICE GOODLAND KS
300 PM CDT TUE SEP 23 2014

NOTE:  "FAIR" INDICATES FEW OR NO CLOUDS BELOW 12,000 FEET WITH NO
SIGNIFICANT WEATHER AND/OR OBSTRUCTIONS TO VISIBILITY.

KSZ001>006-013>018-027>032-041>047-232100-
NORTHWEST KANSAS

CITY           SKY/WX    TMP DP  RH WIND       PRES   REMARKS
GOODLAND       SUNNY     82  53  36 VRB5      30.04F
HILL CITY      SUNNY     83  61  47 VRB7      29.98F
RUSSELL        SUNNY     76  58  53 S18G29    30.01F
$$

KSZ061>065-074>080-084>089-232100-
SOUTHWEST KANSAS

CITY           SKY/WX    TMP DP  RH WIND       PRES   REMARKS
DODGE CITY     MOSUNNY   87  56  34 SW20G33   30.00F
ELKHART          N/A     89  57  33 SW7         N/A
GARDEN CITY    MOSUNNY   88  58  36 SW10G22   29.97F
GREAT BEND     MOSUNNY   81  55  41 S21G31    30.02F
LIBERAL        SUNNY     91  57  31 SW20G29   30.01F
PRATT          LGT RAIN  77  55  47 S20G25    30.06F
$$

KSZ066>073-081>083-090>101-232100-
SOUTHEAST KANSAS

CITY           SKY/WX    TMP DP  RH WIND       PRES   REMARKS
CHANUTE        MOSUNNY   75  55  49 S14       30.17F
COFFEYVILLE    SUNNY     77  54  44 S9G18     30.17F
HUTCHINSON     MOSUNNY   82  51  34 S25       30.06F
MEDICINE LODGE   N/A     83  54  36 S16G25    30.04F
NEWTON         MOSUNNY   79  52  38 S22       30.11F
PARSONS        SUNNY     76  55  48 SE9       30.18F
WICHITA INTL   PTSUNNY   80  51  36 S20       30.08F
WICHITA JABRA  MOSUNNY   80  52  37 S17G29    30.09F
WICHITA MCCONL MOSUNNY   80  50  34 SE21      30.10F
WINFIELD       SUNNY     78  54  43 SE16G25   30.13F
$$

KSZ007>012-019>026-033>040-048>060-102>105-232100-
NORTHEAST KANSAS

CITY           SKY/WX    TMP DP  RH WIND       PRES   REMARKS
CONCORDIA      CLOUDY    61  60  97 SE9       30.09F
EMPORIA        PTSUNNY   74  55  51 S12G21    30.14F
LAWRENCE       PTSUNNY   73  53  49 SE16G24   30.16F
MANHATTAN      CLOUDY    75  57  53 S12       30.10F
MARYSVILLE     TSTM      59  59 100 NE3       30.14F
OLATHE IND     MOSUNNY   72  55  55 SE13G18   30.19F
OLATHE EXE     MOSUNNY   71  54  54 SE14G21   30.19F
SALINA         CLOUDY    74  59  59 SE15      30.05F
TOPEKA BILLARD CLOUDY    75  54  47 SE13      30.14F
TOPEKA FORBES  PTSUNNY   75  51  43 SE17      30.13F
$$



USA.gov is the U.S. government's official web portal to all federal, state and local government web resources and services.